Santa Maria, CA

1:56 PM PST on January 17, 2017 (GMT -0800)
Santa Maria Public Airport / Captain G. Allan Hancock Field

Weather History for KSMX - June, 2013

Change the Weather History Date:

Sunday, June 16, 2013

  Actual Average Record
Temperature  
Mean Temperature 61 °F 60 °F  
Max Temperature 70 °F 70 °F 99 °F (1917)
Min Temperature 52 °F 51 °F 38 °F (1919)
Degree Days  
Heating Degree Days 4 5  
Month to date heating degree days 32 88  
Since 1 June heating degree days 32 88  
Since 1 July heating degree days 2342 2770  
Cooling Degree Days 0 0  
Month to date cooling degree days 3 0  
Year to date cooling degree days 14 10  
Since 1 June cooling degree days 3 0  
Growing Degree Days 11 (Base 50)    
Moisture  
Dew Point 50 °F    
Average Humidity 70    
Maximum Humidity 89    
Minimum Humidity 51    
Precipitation  
Precipitation 0.00 in 0.00 in 0.72 in (1995)
Month to date precipitation T 0.03  
Year to date precipitation 2.49 9.70  
Since 1 July precipitation 6.22  
Sea Level Pressure  
Sea Level Pressure 30.03 in    
Wind  
Wind Speed 6 mph (WNW)    
Max Wind Speed 20 mph    
Max Gust Speed 33 mph    
Visibility 8 miles    
Events      
T = Trace of Precipitation, MM = Missing Value Source: NWS Daily Summary

Daily Weather History Graph

Daily Weather History Graph

Search for Another Location

Airport or City:

Trip Planner

Search our weather history database for the weather conditions in past years. The results will help you decide how hot, cold, wet, or windy it might be!

Date:

Astronomy

Jun. 16, 2013 Rise Set
Actual Time 5:47 AM PDT 8:17 PM PDT
Civil Twilight 5:18 AM PDT 8:47 PM PDT
Nautical Twilight 4:41 AM PDT 9:23 PM PDT
Astronomical Twilight 4:01 AM PDT 10:04 PM PDT
Moon 1:12 PM PDT (6/16) 12:40 AM PDT (6/16)
Length of Visible Light 15h 29m
Length of Day
14h 29m
Waxing Crescent, 51% of the Moon is Illuminated
Jun 16
Waxing Crescent
Jun 23
Full
Jun 29
Last Quarter
Jul 8
New
Jul 15
First Quarter

Hourly Weather History & Observations

Time (PDT) Temp. Dew Point Humidity Pressure Visibility Wind Dir Wind Speed Gust Speed Precip Events Conditions
12:51 AM 54.0 °F 48.9 °F 83% 30.02 in 9.0 mi NW 3.5 mph - N/A   Overcast
1:51 AM 54.0 °F 48.9 °F 83% 30.02 in 9.0 mi NW 5.8 mph - N/A   Overcast
2:51 AM 54.0 °F 48.9 °F 83% 30.01 in 8.0 mi WNW 5.8 mph - N/A   Overcast
3:51 AM 53.1 °F 48.9 °F 86% 30.01 in 8.0 mi NW 4.6 mph - N/A   Overcast
4:51 AM 53.1 °F 48.9 °F 86% 30.02 in 7.0 mi WNW 4.6 mph - N/A   Overcast
5:51 AM 52.0 °F 48.9 °F 89% 30.03 in 6.0 mi Calm Calm - N/A   Overcast
6:51 AM 53.1 °F 48.9 °F 86% 30.04 in 6.0 mi Calm Calm - N/A   Overcast
7:51 AM 54.0 °F 48.9 °F 83% 30.05 in 7.0 mi Calm Calm - N/A   Mostly Cloudy
7:58 AM 53.6 °F 50.0 °F 88% 30.04 in 7.0 mi Calm Calm - N/A   Scattered Clouds
8:51 AM 60.1 °F 48.9 °F 67% 30.06 in 10.0 mi Calm Calm - N/A   Clear
9:51 AM 63.0 °F 48.9 °F 60% 30.06 in 10.0 mi West 5.8 mph - N/A   Clear
10:51 AM 68.0 °F 51.1 °F 55% 30.05 in 10.0 mi NW 6.9 mph - N/A   Clear
11:51 AM 69.1 °F 51.1 °F 53% 30.04 in 10.0 mi NW 11.5 mph - N/A   Clear
12:51 PM 70.0 °F 51.1 °F 51% 30.04 in 10.0 mi WNW 12.7 mph - N/A   Clear
1:51 PM 69.1 °F 50.0 °F 51% 30.03 in 10.0 mi NW 13.8 mph - N/A   Clear
2:51 PM 69.1 °F 51.1 °F 53% 30.02 in 9.0 mi NW 17.3 mph - N/A   Clear
3:51 PM 66.9 °F 51.1 °F 57% 30.01 in 9.0 mi WNW 15.0 mph - N/A   Clear
4:51 PM 66.0 °F 51.1 °F 59% 30.01 in 8.0 mi WNW 10.4 mph - N/A   Clear
5:51 PM 64.0 °F 51.1 °F 63% 30.01 in 8.0 mi WNW 11.5 mph - N/A   Clear
6:51 PM 62.1 °F 51.1 °F 67% 30.01 in 8.0 mi WNW 10.4 mph - N/A   Clear
7:51 PM 60.1 °F 51.1 °F 72% 30.01 in 8.0 mi NW 9.2 mph - N/A   Clear
8:51 PM 57.0 °F 51.1 °F 81% 30.01 in 9.0 mi Calm Calm - N/A   Clear
9:51 PM 57.0 °F 51.1 °F 81% 30.03 in 8.0 mi Calm Calm - N/A   Clear
10:51 PM 55.9 °F 51.1 °F 84% 30.03 in 8.0 mi Calm Calm - N/A   Clear
11:51 PM 55.9 °F 50.0 °F 80% 30.03 in 8.0 mi Calm Calm - N/A   Clear